This demonstration page uses our WeatherBlox Daily Observations layout. Learn more.

Left ArrowRight Arrow

Hourly Observations for January 24, 2017

Temp ( °F °C ) Dew Point ( °F °C ) Humidity (%) Winds ( mph kmh ) Pressure ( in mb ) Visibility ( mi km ) Precip ( " mm )
12:14 am 00:14 Cloudy 37 3 37 3 100 100 N 12 19 29.56 1001 7 11 N/A
12:34 am 00:34 Cloudy with Mist and Fog 37 3 37 3 100 100 NNW 10 17 29.56 1001 5 8 N/A
12:54 am 00:54 Cloudy with Light Rain 37 3 37 3 100 100 NW 10 17 29.56 1001 5 8 N/A
1:14 am 01:14 Cloudy 37 3 37 3 100 100 NW 14 22 29.53 1000 7 11 N/A
1:34 am 01:34 Cloudy with Light Rain 37 3 37 3 100 100 NNW 12 19 29.53 1000 5 8 N/A
1:54 am 01:54 Cloudy with Drizzle 37 3 37 3 100 100 NNW 13 20 29.53 1000 5 8 N/A
2:14 am 02:14 Cloudy with Light Rain 37 3 37 3 100 100 NW 13 20 29.53 1000 5 8 N/A
2:34 am 02:34 Cloudy 37 3 37 3 100 100 NNW 15 24 29.53 1000 7 11 N/A
2:54 am 02:54 Cloudy with Drizzle 37 3 37 3 100 100 NNW 15 24 29.53 1000 5 8 N/A
3:14 am 03:14 Cloudy with Light Rain 37 3 37 3 100 100 NW 12 19 29.53 1000 7 11 N/A
3:34 am 03:34 Cloudy with Drizzle 37 3 37 3 100 100 NNW 15 24 29.53 1000 10 16 N/A
3:54 am 03:54 Cloudy with Light Rain 37 3 37 3 100 100 NW 17 28 29.56 1001 5 8 N/A
4:14 am 04:14 Cloudy with Rain 37 3 37 3 100 100 NW 14 22 29.56 1001 4 6 N/A
4:34 am 04:34 Cloudy with Light Rain 37 3 37 3 100 100 NW 15 24 29.53 1000 4 6 N/A
4:54 am 04:54 Cloudy with Mist and Fog 37 3 37 3 100 100 NW 13 20 29.53 1000 5 8 N/A
5:14 am 05:14 Cloudy with Light Rain 37 3 37 3 100 100 NW 17 28 29.53 1000 10 16 N/A
5:34 am 05:34 Cloudy 37 3 37 3 100 100 NW 18 30 29.53 1000 10 16 N/A
5:54 am 05:54 Cloudy 37 3 37 3 100 100 NW 14 22 29.56 1001 10 16 N/A
6:14 am 06:14 Cloudy 39 4 39 4 100 100 NW 16 26 29.56 1001 10 16 N/A
6:34 am 06:34 Cloudy 39 4 37 3 93 93 NW 20 31 29.56 1001 10 16 N/A
6:54 am 06:54 Cloudy 37 3 37 3 100 100 NNW 20 31 29.56 1001 10 16 N/A
7:14 am 07:14 Cloudy 39 4 37 3 93 93 NW 18 30 29.56 1001 10 16 N/A
7:34 am 07:34 Cloudy 39 4 37 3 93 93 NNW 13 20 29.56 1001 10 16 N/A
7:54 am 07:54 Cloudy 39 4 37 3 93 93 NNW 17 28 29.56 1001 10 16 N/A
8:14 am 08:14 Mostly Cloudy 39 4 37 3 93 93 NNW 12 19 29.56 1001 10 16 N/A
8:34 am 08:34 Mostly Cloudy 39 4 37 3 93 93 NNW 16 26 29.56 1001 10 16 N/A
8:54 am 08:54 Partly Cloudy 41 5 39 4 93 93 NNW 14 22 29.53 1000 10 16 N/A
9:14 am 09:14 Partly Cloudy 43 6 39 4 87 87 NNW 16 26 29.56 1001 10 16 N/A
9:34 am 09:34 Mostly Cloudy 43 6 39 4 87 87 NW 20 31 29.56 1001 10 16 N/A
9:54 am 09:54 Cloudy 43 6 37 3 81 81 NNW 17 28 29.56 1001 10 16 N/A
10:14 am 10:14 Mostly Cloudy 45 7 39 4 81 81 NW 18 30 29.56 1001 10 16 N/A
10:34 am 10:34 Mostly Cloudy 45 7 39 4 81 81 NNW 18 30 29.56 1001 10 16 N/A
10:54 am 10:54 Cloudy 46 8 39 4 76 76 NW 20 31 29.56 1001 10 16 N/A
11:34 am 11:34 Cloudy 46 8 39 4 76 76 NNW 20 31 29.56 1001 10 16 N/A
11:54 am 11:54 Cloudy 46 8 37 3 71 71 NW 21 33 29.56 1001 10 16 N/A
12:14 pm 12:14 Cloudy 45 7 37 3 76 76 NW 16 26 29.56 1001 10 16 N/A
12:34 pm 12:34 Cloudy 46 8 39 4 76 76 NW 22 35 29.56 1001 10 16 N/A
12:55 pm 12:55 Cloudy 45 7 37 3 76 76 NW 15 24 29.53 1000 10 16 N/A
1:15 pm 13:15 Cloudy 45 7 37 3 76 76 NNW 15 24 29.53 1000 10 16 N/A
1:35 pm 13:35 Cloudy 46 8 39 4 76 76 NW 15 24 29.53 1000 10 16 N/A
1:55 pm 13:55 Cloudy 46 8 39 4 76 76 NW 20 31 29.53 1000 10 16 N/A
2:15 pm 14:15 Cloudy 46 8 39 4 76 76 NW 16 26 29.56 1001 10 16 N/A
2:35 pm 14:35 Cloudy 46 8 39 4 76 76 NNW 12 19 29.56 1001 10 16 N/A
2:55 pm 14:55 Cloudy 46 8 39 4 76 76 NNW 21 33 29.56 1001 10 16 N/A
3:15 pm 15:15 Cloudy 46 8 41 5 82 82 NW 15 24 29.56 1001 10 16 N/A
3:35 pm 15:35 Cloudy 46 8 41 5 82 82 NNW 14 22 29.56 1001 10 16 N/A
3:55 pm 15:55 Cloudy 48 9 41 5 76 76 NW 14 22 29.56 1001 10 16 N/A
4:15 pm 16:15 Cloudy 46 8 39 4 76 76 N 8 13 29.56 1001 10 16 N/A
4:35 pm 16:35 Cloudy 48 9 39 4 71 71 N 10 17 29.59 1002 10 16 N/A
4:55 pm 16:55 Cloudy 48 9 39 4 71 71 N 8 13 29.59 1002 10 16 N/A
5:15 pm 17:15 Partly Cloudy 46 8 37 3 71 71 NNW 12 19 29.59 1002 10 16 N/A
5:35 pm 17:35 Partly Cloudy 46 8 39 4 76 76 NW 13 20 29.59 1002 10 16 N/A
5:55 pm 17:55 Cloudy 46 8 39 4 76 76 N 8 13 29.62 1003 10 16 N/A
6:15 pm 18:15 Cloudy 46 8 39 4 76 76 NNW 8 13 29.62 1003 10 16 N/A
6:35 pm 18:35 Cloudy 46 8 39 4 76 76 NNW 10 17 29.62 1003 10 16 N/A
6:55 pm 18:55 Mostly Cloudy 46 8 39 4 76 76 NW 22 35 29.62 1003 10 16 N/A
7:15 pm 19:15 Partly Cloudy 46 8 39 4 76 76 NW 28 44 29.62 1003 10 16 N/A
7:35 pm 19:35 Mostly Cloudy 46 8 41 5 82 82 NW 21 33 29.65 1004 10 16 N/A
7:55 pm 19:55 Mostly Cloudy 46 8 41 5 82 82 WNW 18 30 29.65 1004 10 16 N/A
8:15 pm 20:15 Mostly Cloudy 46 8 41 5 82 82 WNW 18 30 29.65 1004 10 16 N/A
8:35 pm 20:35 Cloudy 46 8 41 5 82 82 WNW 18 30 29.68 1005 10 16 N/A
8:55 pm 20:55 Mostly Cloudy 46 8 41 5 82 82 WNW 23 37 29.68 1005 10 16 N/A
9:15 pm 21:15 Mostly Cloudy 46 8 41 5 82 82 NW 22 35 29.68 1005 10 16 N/A
9:35 pm 21:35 Cloudy 46 8 41 5 82 82 NW 20 31 29.68 1005 10 16 N/A
9:55 pm 21:55 Partly Cloudy 46 8 41 5 82 82 NW 25 41 29.68 1005 10 16 N/A
10:15 pm 22:15 Clear 46 8 39 4 76 76 WNW 23 37 29.68 1005 10 16 N/A
10:35 pm 22:35 Clear 46 8 39 4 76 76 NW 20 31 29.68 1005 10 16 N/A
10:55 pm 22:55 Clear 46 8 39 4 76 76 WNW 23 37 29.68 1005 10 16 N/A
11:15 pm 23:15 Clear 46 8 39 4 76 76 WNW 24 39 29.68 1005 10 16 N/A
11:35 pm 23:35 Clear 46 8 41 5 82 82 WNW 26 43 29.68 1005 10 16 N/A
11:55 pm 23:55 Clear 46 8 41 5 82 82 NW 24 39 29.68 1005 10 16 N/A

Powered by AerisWeather